When you browse on this site, cookies collect data to enhance your experience and personalize the content and advertising you see.
Visit our Privacy Policy to learn more. By continuing to use the site, you agree to this use of cookies and data.

Stündliche Wetter Kryuchok

Heute, 7 Juli, Dienstag

Zeit Temperatur Niederschläge Wind Luftdruck Luftfeuchtigkeit
00:00 +21°C° 0 mm 1 m/S 742 mmHg 86%
01:00 +21°C° 0 mm 1 m/S 742 mmHg 88%
02:00 +20°C° 0 mm 2 m/S 742 mmHg 90%
03:00 +20°C° 0 mm 2 m/S 742 mmHg 93%
04:00 +20°C° 0.1 mm 2 m/S 742 mmHg 93%
05:00 +21°C° 0.1 mm 2 m/S 741 mmHg 93%
06:00 +21°C° 0.1 mm 2 m/S 741 mmHg 93%
07:00 +24°C° 0 mm 2 m/S 741 mmHg 90%
08:00 +26°C° 0 mm 3 m/S 741 mmHg 86%
09:00 +27°C° 0 mm 3 m/S 741 mmHg 82%
10:00 +28°C° 0.4 mm 3 m/S 741 mmHg 78%
11:00 +30°C° 0.4 mm 3 m/S 741 mmHg 73%
12:00 +31°C° 0.4 mm 3 m/S 741 mmHg 69%
13:00 +32°C° 0.4 mm 4 m/S 741 mmHg 70%
14:00 +32°C° 0.4 mm 4 m/S 740 mmHg 70%
15:00 +32°C° 0.4 mm 4 m/S 740 mmHg 71%
16:00 +32°C° 0.4 mm 4 m/S 740 mmHg 72%
17:00 +32°C° 0.4 mm 4 m/S 739 mmHg 74%
18:00 +30°C° 0.4 mm 4 m/S 739 mmHg 76%
19:00 +29°C° 0 mm 4 m/S 739 mmHg 76%
20:00 +27°C° 0 mm 4 m/S 739 mmHg 77%
21:00 +26°C° 0 mm 4 m/S 738 mmHg 77%
22:00 +25°C° 0 mm 4 m/S 738 mmHg 75%
23:00 +23°C° 0 mm 4 m/S 738 mmHg 72%

Morgen, 8 Juli, Mittwoch

Zeit Temperatur Niederschläge Wind Luftdruck Luftfeuchtigkeit
00:00 +23°C° 0 mm 4 m/S 738 mmHg 70%
01:00 +23°C° 0 mm 4 m/S 738 mmHg 69%
02:00 +22°C° 0 mm 4 m/S 738 mmHg 68%
03:00 +22°C° 0 mm 4 m/S 738 mmHg 68%
04:00 +22°C° 0 mm 3 m/S 737 mmHg 71%
05:00 +22°C° 0 mm 3 m/S 737 mmHg 74%
06:00 +21°C° 0 mm 3 m/S 736 mmHg 77%
07:00 +22°C° 0 mm 3 m/S 737 mmHg 77%
08:00 +24°C° 0 mm 3 m/S 737 mmHg 76%
09:00 +25°C° 0 mm 2 m/S 737 mmHg 76%
10:00 +26°C° 0 mm 3 m/S 737 mmHg 73%
11:00 +27°C° 0 mm 3 m/S 737 mmHg 69%
12:00 +28°C° 0 mm 3 m/S 738 mmHg 66%
13:00 +28°C° 0.1 mm 3 m/S 738 mmHg 69%
14:00 +28°C° 0.1 mm 3 m/S 738 mmHg 72%
15:00 +27°C° 0.1 mm 3 m/S 738 mmHg 75%
16:00 +26°C° 1.5 mm 3 m/S 738 mmHg 80%
17:00 +25°C° 1.5 mm 4 m/S 739 mmHg 84%
18:00 +23°C° 1.5 mm 4 m/S 739 mmHg 89%
19:00 +22°C° 0.8 mm 4 m/S 739 mmHg 91%
20:00 +21°C° 0.8 mm 4 m/S 739 mmHg 93%
21:00 +20°C° 0.8 mm 4 m/S 740 mmHg 96%
22:00 +20°C° 0.6 mm 4 m/S 740 mmHg 96%
23:00 +19°C° 0.6 mm 4 m/S 740 mmHg 96%

übermorgen, 9 Juli, Donnerstag

Zeit Temperatur Niederschläge Wind Luftdruck Luftfeuchtigkeit
00:00 +19°C° 0.6 mm 5 m/S 740 mmHg 96%
01:00 +17°C° 0.7 mm 5 m/S 741 mmHg 96%
02:00 +16°C° 0.7 mm 5 m/S 741 mmHg 95%
03:00 +15°C° 0.7 mm 5 m/S 741 mmHg 95%
04:00 +15°C° 0.5 mm 5 m/S 741 mmHg 95%
05:00 +15°C° 0.5 mm 5 m/S 741 mmHg 95%
06:00 +15°C° 0.5 mm 5 m/S 741 mmHg 94%
07:00 +15°C° 0.1 mm 5 m/S 741 mmHg 93%
08:00 +15°C° 0.1 mm 5 m/S 742 mmHg 92%
09:00 +15°C° 0.1 mm 5 m/S 742 mmHg 91%
10:00 +16°C° 0.1 mm 5 m/S 742 mmHg 85%
11:00 +19°C° 0.1 mm 5 m/S 743 mmHg 80%
12:00 +20°C° 0.1 mm 6 m/S 743 mmHg 74%
13:00 +21°C° 0 mm 5 m/S 744 mmHg 72%
14:00 +21°C° 0 mm 5 m/S 744 mmHg 70%
15:00 +22°C° 0 mm 4 m/S 744 mmHg 68%
16:00 +22°C° 0 mm 4 m/S 744 mmHg 70%
17:00 +22°C° 0 mm 4 m/S 744 mmHg 72%
18:00 +21°C° 0 mm 4 m/S 745 mmHg 74%
19:00 +20°C° 0 mm 3 m/S 745 mmHg 77%
20:00 +18°C° 0 mm 3 m/S 745 mmHg 81%
21:00 +17°C° 0 mm 3 m/S 746 mmHg 84%
22:00 +16°C° 0 mm 3 m/S 746 mmHg 86%
23:00 +14°C° 0 mm 3 m/S 746 mmHg 87%

10 Juli, Freitag

Zeit Temperatur Niederschläge Wind Luftdruck Luftfeuchtigkeit
00:00 +14°C° 0 mm 3 m/S 747 mmHg 88%
01:00 +13°C° 0 mm 3 m/S 747 mmHg 89%
02:00 +13°C° 0 mm 3 m/S 747 mmHg 91%
03:00 +12°C° 0 mm 3 m/S 747 mmHg 92%
04:00 +13°C° 0 mm 3 m/S 748 mmHg 91%
05:00 +13°C° 0 mm 3 m/S 748 mmHg 90%
06:00 +13°C° 0 mm 3 m/S 748 mmHg 90%
07:00 +16°C° 0 mm 3 m/S 748 mmHg 85%
08:00 +17°C° 0 mm 3 m/S 749 mmHg 80%
09:00 +19°C° 0 mm 3 m/S 749 mmHg 76%
10:00 +20°C° 0 mm 3 m/S 749 mmHg 71%
11:00 +21°C° 0 mm 3 m/S 749 mmHg 67%
12:00 +22°C° 0 mm 3 m/S 750 mmHg 63%
13:00 +22°C° 0 mm 3 m/S 750 mmHg 62%
14:00 +22°C° 0 mm 3 m/S 750 mmHg 61%
15:00 +22°C° 0 mm 3 m/S 750 mmHg 59%
16:00 +22°C° 0 mm 3 m/S 750 mmHg 62%
17:00 +23°C° 0 mm 2 m/S 750 mmHg 65%
18:00 +23°C° 0 mm 2 m/S 750 mmHg 68%
19:00 +20°C° 0 mm 2 m/S 750 mmHg 70%
20:00 +19°C° 0 mm 1 m/S 750 mmHg 73%
21:00 +18°C° 0 mm 1 m/S 751 mmHg 75%
22:00 +16°C° 0 mm 1 m/S 751 mmHg 76%
23:00 +16°C° 0 mm 1 m/S 751 mmHg 76%

11 Juli, Samstag

Zeit Temperatur Niederschläge Wind Luftdruck Luftfeuchtigkeit
00:00 +15°C° 0 mm 1 m/S 751 mmHg 77%
01:00 +15°C° 0 mm 1 m/S 751 mmHg 78%
02:00 +14°C° 0 mm 1 m/S 751 mmHg 79%
03:00 +14°C° 0 mm 1 m/S 751 mmHg 80%
04:00 +15°C° 0 mm 1 m/S 752 mmHg 81%
05:00 +15°C° 0 mm 1 m/S 752 mmHg 81%
06:00 +15°C° 0 mm 0 m/S 752 mmHg 81%
07:00 +18°C° 0 mm 1 m/S 752 mmHg 77%
08:00 +20°C° 0 mm 1 m/S 752 mmHg 72%
09:00 +20°C° 0 mm 2 m/S 752 mmHg 68%
10:00 +21°C° 0 mm 2 m/S 752 mmHg 65%
11:00 +23°C° 0 mm 2 m/S 752 mmHg 61%
12:00 +24°C° 0 mm 2 m/S 751 mmHg 58%
13:00 +24°C° 0 mm 2 m/S 751 mmHg 57%
14:00 +25°C° 0 mm 2 m/S 751 mmHg 56%
15:00 +25°C° 0 mm 2 m/S 751 mmHg 55%
16:00 +25°C° 0 mm 2 m/S 751 mmHg 59%
17:00 +25°C° 0 mm 2 m/S 750 mmHg 62%
18:00 +25°C° 0 mm 2 m/S 750 mmHg 66%
19:00 +23°C° 0 mm 2 m/S 750 mmHg 68%
20:00 +20°C° 0 mm 2 m/S 750 mmHg 71%
21:00 +20°C° 0 mm 1 m/S 750 mmHg 73%
22:00 +18°C° 0 mm 2 m/S 750 mmHg 73%
23:00 +18°C° 0 mm 2 m/S 750 mmHg 73%

12 Juli, Sonntag

Zeit Temperatur Niederschläge Wind Luftdruck Luftfeuchtigkeit
00:00 +17°C° 0 mm 2 m/S 750 mmHg 74%
01:00 +17°C° 0 mm 2 m/S 749 mmHg 74%
02:00 +16°C° 0 mm 2 m/S 749 mmHg 75%
03:00 +16°C° 0 mm 2 m/S 749 mmHg 76%
04:00 +16°C° 0 mm 2 m/S 749 mmHg 78%
05:00 +17°C° 0 mm 2 m/S 749 mmHg 79%
06:00 +17°C° 0 mm 2 m/S 749 mmHg 81%
07:00 +19°C° 0 mm 2 m/S 749 mmHg 77%
08:00 +20°C° 0 mm 2 m/S 749 mmHg 73%
09:00 +23°C° 0 mm 1 m/S 749 mmHg 69%
10:00 +24°C° 0 mm 1 m/S 749 mmHg 66%
11:00 +25°C° 0 mm 1 m/S 749 mmHg 63%
12:00 +26°C° 0 mm 1 m/S 749 mmHg 61%
13:00 +26°C° 0 mm 1 m/S 748 mmHg 59%
14:00 +27°C° 0 mm 1 m/S 748 mmHg 58%
15:00 +27°C° 0 mm 1 m/S 747 mmHg 56%
16:00 +27°C° 0 mm 1 m/S 747 mmHg 58%
17:00 +27°C° 0 mm 1 m/S 747 mmHg 60%
18:00 +25°C° 0 mm 0 m/S 747 mmHg 61%
19:00 +23°C° 0 mm 0 m/S 747 mmHg 65%
20:00 +21°C° 0 mm 0 m/S 746 mmHg 69%
21:00 +20°C° 0 mm 0 m/S 746 mmHg 73%
22:00 +21°C° 0 mm 1 m/S 746 mmHg 74%
23:00 +20°C° 0 mm 1 m/S 746 mmHg 76%
Mehr zeigen